www.pogodaiklimat.ru

Погода и климат >> Архив погоды >> Канада >> Нунавут >> Исачсен


ПОГОДА в Исачсене

  • Прогноз погоды в Исачсене
  • Монитор погоды в Исачсене

АРХИВ ПОГОДЫ в Исачсене

Время (UTC), дата Ветер
(напр.,м/с)
 
Видим.   Явления Облачность Т
(С)
Тd
(С)
f
(%)
Тe
(С)
Тes
(С)
Комфортность P
(гПа)
Po
(гПа)
Тmin
(С)
Tmax
(С)
R
(мм)
R24
(мм)
S
(см)
06 13.06 Ю 6 н/о н/о -0.4 -0.6 99 -7 -7 1011.1 1003.6 -0.5 +1.2 5
09 13.06 ЮВ 7 н/о н/о -0.4 -0.9 96 -8 -8 1010.8 1003.3
12 13.06 ЮВ 6 н/о н/о +0.1 -0.6 95 -7 -7 1010.3 1002.8 -0.8 +1.2
15 13.06 ЮВ 7 н/о н/о +0.6 -0.2 94 -6 -6 1009.7 1002.2
18 13.06 ЮВ 6 н/о н/о +1.9 +0.1 88 -4 -4 1009.1 1001.6 -0.8 +1.9
21 13.06 Ю 6 н/о н/о +1.8 +0.3 90 -4 -4 1008.9 1001.4
00 14.06 ЮВ 7 н/о н/о +0.8 -0.2 93 -6 -6 1009.0 1001.5 -0.8 +2.3
03 14.06 ЮВ 9 н/о н/о -0.2 -0.7 96 -8 -8 1009.3 1001.8
06 14.06 Ю 7 н/о н/о +0.1 -0.5 96 -7 -7 1010.1 1002.6 -0.8 +2.3 4
09 14.06 Ю 7 н/о н/о 0.0 -0.1 99 -7 -7 1010.9 1003.4
12 14.06 Ю 5 н/о н/о +0.4 +0.2 99 -6 -6 1011.8 1004.3 -0.4 +2.3
15 14.06 Ю 6 н/о н/о +0.3 0.0 98 -6 -6 1012.7 1005.2
18 14.06 Ю 5 н/о н/о +0.9 +0.5 97 -5 -5 1012.8 1005.3 -0.4 +0.9
21 14.06 ЮВ 4 н/о н/о +0.8 +0.1 95 -5 -5 1012.7 1005.2 0.2
00 15.06 Ю 3 н/о н/о +0.8 +0.3 96 -4 -4 1012.6 1005.1 -0.1 +1.2 0.2
03 15.06 ЮЗ 3 н/о н/о +0.2 +0.1 99 -5 -5 1013.0 1005.5
06 15.06 Ю 4 н/о н/о +0.6 -0.5 92 -5 -5 1013.8 1006.3 -0.1 +1.2 7
09 15.06 Ю 4 н/о н/о +0.7 -0.9 89 -5 -5 1014.8 1007.3
12 15.06 Ю 5 н/о н/о +0.8 -0.6 90 -5 -5 1015.7 1008.2 +0.2 +1.2
15 15.06 Ю 4 н/о н/о +1.0 -0.4 90 -4 -4 1016.4 1008.9
18 15.06 Ю 5 н/о н/о +1.5 -1.3 82 -4 -4 1016.6 1009.1 +0.2 +1.5
21 15.06 ЮВ 7 н/о н/о +2.5 -0.2 82 -4 -4 1015.7 1008.2
00 16.06 В 7 н/о н/о +2.3 +0.4 87 -4 -4 1014.2 1006.7 +0.4 +3.4
03 16.06 В 9 н/о н/о +1.5 +1.1 97 -6 -6 1011.9 1004.4
06 16.06 В 10 н/о н/о +0.9 +0.3 96 -7 -7 1009.1 1001.6 +0.4 +3.4 4
09 16.06 В 10 н/о н/о +0.5 +0.1 97 -8 -8 1007.0 999.5
12 16.06 ЮВ 8 н/о н/о +0.4 +0.1 98 -7 -7 1007.4 999.9 +0.4 +3.4
15 16.06 Ю 7 н/о н/о +0.9 0.0 94 -6 -6 1008.0 1000.5
18 16.06 Ю 8 н/о н/о +0.9 0.0 94 -6 -6 1008.4 1000.9 +0.3 +1.1
21 16.06 Ю 7 н/о н/о +1.4 -1.4 82 -5 -5 1008.8 1001.3
00 17.06 ЮВ 11 н/о н/о +1.1 -1.3 84 -7 -7 1008.7 1001.2 +0.3 +1.8
03 17.06 ЮВ 10 н/о н/о +0.8 -1.0 88 -7 -7 1008.6 1001.1
06 17.06 ЮВ 10 н/о н/о +0.1 -1.2 91 -8 -8 1008.2 1000.7 -0.2 +1.8 2
09 17.06 ЮВ 11 н/о н/о -0.1 -0.9 94 -9 -9 1007.9 1000.4
12 17.06 Ю 7 н/о н/о +0.2 -0.1 98 -7 -7 1008.1 1000.6 +1.8
18 17.06 Ю 6 н/о н/о +1.0 -0.7 88 -5 -5 1008.1 1000.6
21 17.06 ЮВ 6 н/о {осадки} н/о +1.7 -1.1 82 -4 -4 1007.1 999.6 0.2
00 18.06 ЮВ 6 н/о {осадки} н/о +0.7 0.0 95 -6 -6 1006.2 998.7 0.2
03 18.06 ЮВ 6 н/о н/о +0.7 -0.5 92 -6 -6 1005.3 997.8
06 18.06 В 5 н/о н/о +0.7 -0.3 93 -5 -5 1004.8 997.3 9
09 18.06 В 7 н/о н/о +0.4 -1.1 90 -7 -7 1004.2 996.7
12 18.06 СВ 7 н/о н/о +0.2 -1.2 90 -7 -7 1004.1 996.6 -0.1
15 18.06 СВ 8 н/о н/о +0.6 -1.0 89 -7 -7 1004.0 996.5
18 18.06 СВ 8 н/о н/о +1.0 -0.8 88 -6 -6 1004.4 996.9 -0.2 +1.3
21 18.06 СВ 9 н/о н/о +1.6 -0.6 85 -6 -6 1005.2 997.7
00 19.06 н/о н/о +0.6 -0.4 93 1005.8 998.3 -0.2 +1.9
03 19.06 С 7 н/о н/о +0.4 -0.3 95 -7 -7 1006.0 998.5
06 19.06 С 8 н/о {осадки} н/о +0.1 -0.5 96 -8 -8 1006.2 998.7 -0.2 +1.9 0.2 16
09 19.06 С 10 н/о н/о -0.3 -1.2 94 -9 -9 1006.5 999.0
12 19.06 С 10 н/о {осадки} н/о -0.4 -1.6 92 -9 -9 1007.3 999.8 -0.7 +1.9 0.2
15 19.06 СЗ 12 н/о н/о +0.9 -2.2 80 -7 -7 1007.8 1000.3
18 19.06 СЗ 12 н/о н/о +0.2 -1.7 87 -9 -9 1007.8 1000.3 -0.7 +1.0
21 19.06 СЗ 10 н/о н/о -0.6 -2.1 90 -9 -9 1008.3 1000.8
00 20.06 СЗ 8 н/о н/о -0.0 -1.3 91 -8 -8 1009.1 1001.6 -0.9 +1.0
03 20.06 СЗ 6 н/о н/о 0.0 -0.9 94 -7 -7 1009.8 1002.3

 

Местоположение метеостанции Исачсен (Нунавут, Канада): широта 78.78 долгота -103.50 высота над уровнем моря 58 м.

В архиве по умолчанию представлена погода в Исачсене за последнюю неделю. Архивные данные за месяц целиком и за предыдущие месяцы, начиная с января 2011 года, Вы можете получить, выбрав интересующий диапазон дат из раскрывающегося списка и нажав кнопку "Ввод!".


*Определитесь, кто Вы:
робот инопланетянин человек

Внимание! Время в таблицах - всемирное. Для получения местного времени необходимо прибавить поправку, которая равна -6 ч.

Смотрите также архив погоды в соседних городах и на ближайших метеорологических станциях:

Погода в Сарнии (Онтарио, Канада) (111 км)
Погода в Юрике (Нунавут, Канада) (382 км)
Погода в Юрике (Нунавут, Канада) (383 км)
Погода в Моулд Бэй (Северо-Западные территории, Канада) (472 км)
Погода в Ресольют Бэй (Нунавут, Канада) (500 км)
Погода в Аэропорту Ресольют Бэй (Нунавут, Канада) (500 км)
Погода на Острове Стефанссон (Нунавут, Канада) (559 км)
Погода в Национальном парке Олавик (Северо-Западные территории, Канада) (666 км)
Погода в Kitsissut (Гренландия) (751 км)
Погода в Mittarfik Qaanaaq (Гренландия) (782 км)

Пояснения к столбцам:

Ветер - указаны скорость ветра в м/с - средняя за 10 мин, порывы в срок и между сроками (в фигурных скобках) и направление, откуда дует ветер: С - северный, СВ - северо-восточный, В - восточный, ЮВ - юго-восточный, Ю - южный, ЮЗ - юго-западный, З - западный, СЗ - северо-западный.
Видимость - горизонтальная дальность видимости в метрах или километрах. При видимости от 1 до 10 км при отсутствии осадков обычно наблюдается дымка, при ухудшении видимости до 1 км и менее - туман. В сухую погоду видимость может ухудшаться дымом, пылью или мглою.
Явления - указаны атмосферные явления, наблюдавшиеся в срок или в последний час перед сроком; фигурными скобками обозначены явления, наблюдавшиеся между сроками (за 1-3 часа до срока); квадратными скобками обозначены град или гололедные отложения с указанием их диаметра в мм.
Облачность - указаны через наклонную черту общая и нижняя облачность в баллах и высота нижней границы облаков в метрах; квадратными скобками обозначены формы облаков: Ci - перистые, Cs - перисто-слоистые, Cc - перисто-кучевые, Ac - высококучевые, As - высокослоистые, Sc - слоисто-кучевые, Ns - слоисто-дождевые, Cu - кучевые, Cb - кучево-дождевые. Подробнее классификацию облаков см. в Атласе облаков (PDF).
T - Температура воздуха - температура, измеренная на высоте 2 м над землей.
Td - Температура точки росы - температура, при понижении до которой содержащийся в воздухе водяной пар достигнет насыщения.
f - Относительная влажность воздуха - влажноcть воздуха, измеренная на высоте 2 м над землей.
Te - Эффективная температура - температура, которую ощущает одетый по сезону человек в тени. Характеристика душности погоды. При расчете учитывается влияние влажности воздуха и скорости ветра на теплоощущения человека.
Tes - Эффективная температура на солнце - температура, которую ощущает человек, с поправкой на солнечный нагрев. Характеристика знойности погоды. Зависит от высоты солнца над горизонтом, облачности и скорости ветра. Ночью, в пасмурную погоду, а также при ветре 12 м/с и более поправка равна нулю.
P - Атмосферное давление - приведенное к уровню моря атмосферное давление.
Po - Атмосферное давление - измеренное на уровне метеостанции атмосферное давление.
Tmin - Минимальная температура - минимум температуры воздуха на высоте 2 м над землей.
Tmax - Максимальная температура - максимум температуры воздуха на высоте 2 м над землей.
R - Количество осадков - Количество выпавших осадков за период времени, мм. При наведении курсора мыши на число - период времени, за который выпало указанное количество осадков.
R24 - Количество осадков - Количество выпавших осадков за 24 часа, мм.
S - Снежный покров - Высота снежного покрова, см. При наведении курсора мыши на число - состояние снежного покрова и степень покрытия местности в баллах.